TimeMST,TemperatureF,Dew PointF,Humidity,Sea Level PressureIn,VisibilityMPH,Wind Direction,Wind SpeedMPH,Gust SpeedMPH,PrecipitationIn,Events,Conditions,WindDirDegrees,DateUTC
12:53 AM,25.0,21.9,88,29.91,9.0,Calm,Calm,-,0.00,,Overcast,0,2013-03-07 07:53:00
1:44 AM,24.8,21.2,86,29.83,10.0,WNW,5.8,-,N/A,,Overcast,290,2013-03-07 08:44:00
1:53 AM,25.0,21.9,88,29.93,10.0,West,5.8,-,N/A,,Overcast,280,2013-03-07 08:53:00
2:29 AM,24.8,21.2,86,29.84,9.0,WNW,6.9,-,N/A,,Overcast,290,2013-03-07 09:29:00
2:51 AM,24.8,21.2,86,29.84,2.5,WNW,6.9,-,0.00,Snow,Light Snow,290,2013-03-07 09:51:00
2:53 AM,25.0,21.9,88,29.93,2.5,WNW,6.9,-,0.00,Snow,Light Snow,290,2013-03-07 09:53:00
3:02 AM,24.8,21.2,86,29.84,3.0,WNW,6.9,-,0.00,Snow,Light Snow,290,2013-03-07 10:02:00
3:11 AM,24.8,21.2,86,29.84,5.0,West,5.8,-,0.00,Snow,Light Snow,280,2013-03-07 10:11:00
3:15 AM,24.8,21.2,86,29.84,7.0,West,6.9,-,0.00,,Overcast,280,2013-03-07 10:15:00
3:29 AM,24.8,21.2,86,29.85,1.8,West,8.1,-,0.00,Snow,Light Snow,270,2013-03-07 10:29:00
3:33 AM,24.8,21.2,86,29.85,0.8,West,8.1,-,0.01,Snow,Light Snow,280,2013-03-07 10:33:00
3:43 AM,24.8,21.2,86,29.86,1.0,West,8.1,-,0.02,Snow,Light Snow,260,2013-03-07 10:43:00
3:47 AM,24.8,21.2,86,29.86,2.0,West,6.9,-,0.02,Snow,Light Snow,260,2013-03-07 10:47:00
3:53 AM,25.0,21.9,88,29.95,3.0,West,6.9,-,0.02,Snow,Light Snow,270,2013-03-07 10:53:00
4:02 AM,24.8,21.2,86,29.86,2.5,West,6.9,-,0.00,Snow,Light Snow,260,2013-03-07 11:02:00
4:32 AM,24.8,21.2,86,29.87,3.0,WSW,6.9,-,0.00,Snow,Light Snow,250,2013-03-07 11:32:00
4:49 AM,24.8,21.2,86,29.88,3.0,West,5.8,-,0.00,Snow,Light Snow,260,2013-03-07 11:49:00
4:53 AM,24.1,21.9,91,29.98,3.0,WSW,6.9,-,0.01,Snow,Light Snow,250,2013-03-07 11:53:00
5:01 AM,24.8,21.2,86,29.89,2.5,WSW,8.1,-,0.00,Snow,Light Snow,250,2013-03-07 12:01:00
5:12 AM,24.8,21.2,86,29.89,3.0,WSW,9.2,-,0.00,Snow,Light Snow,250,2013-03-07 12:12:00
5:36 AM,24.8,21.2,86,29.90,9.0,WSW,5.8,-,0.00,,Overcast,250,2013-03-07 12:36:00
5:53 AM,25.0,21.9,88,30.01,10.0,West,6.9,-,0.00,,Overcast,260,2013-03-07 12:53:00
6:06 AM,24.8,21.2,86,29.92,10.0,WSW,6.9,-,N/A,,Overcast,250,2013-03-07 13:06:00
6:53 AM,25.0,21.0,85,30.03,10.0,West,9.2,-,N/A,,Overcast,270,2013-03-07 13:53:00
7:21 AM,24.8,21.2,86,29.94,10.0,WNW,9.2,-,N/A,,Overcast,290,2013-03-07 14:21:00
7:53 AM,24.1,19.0,81,30.06,9.0,NW,10.4,-,N/A,,Overcast,310,2013-03-07 14:53:00
8:14 AM,24.8,17.6,74,29.96,10.0,WNW,8.1,-,N/A,,Overcast,300,2013-03-07 15:14:00
8:53 AM,23.0,17.1,78,30.08,10.0,WNW,12.7,-,N/A,,Overcast,290,2013-03-07 15:53:00
9:53 AM,23.0,16.0,74,30.09,10.0,WNW,12.7,-,N/A,,Overcast,300,2013-03-07 16:53:00
10:53 AM,25.0,17.1,72,30.09,10.0,WNW,12.7,-,N/A,,Overcast,300,2013-03-07 17:53:00
11:33 AM,28.4,19.4,69,30.00,10.0,West,12.7,-,N/A,,Mostly Cloudy,280,2013-03-07 18:33:00
11:50 AM,28.4,19.4,69,30.00,10.0,West,11.5,-,N/A,,Partly Cloudy,270,2013-03-07 18:50:00
11:53 AM,28.0,19.0,69,30.10,10.0,West,10.4,-,N/A,,Partly Cloudy,280,2013-03-07 18:53:00
12:53 PM,30.0,19.0,64,30.10,10.0,WNW,9.2,-,N/A,,Clear,300,2013-03-07 19:53:00
1:53 PM,30.9,19.9,64,30.10,10.0,WNW,4.6,-,N/A,,Clear,290,2013-03-07 20:53:00
2:53 PM,32.0,19.9,61,30.10,10.0,NNW,3.5,-,N/A,,Clear,330,2013-03-07 21:53:00
3:53 PM,33.1,21.0,61,30.12,-9999.0,NW,3.5,-,N/A,,Clear,320,2013-03-07 22:53:00
4:53 PM,30.0,21.0,69,30.14,10.0,NNW,9.2,-,N/A,,Overcast,340,2013-03-07 23:53:00
5:53 PM,26.1,18.0,71,30.15,10.0,North,9.2,-,N/A,,Partly Cloudy,360,2013-03-08 00:53:00
6:53 PM,21.9,16.0,78,30.18,10.0,NNE,4.6,-,N/A,,Clear,20,2013-03-08 01:53:00
7:53 PM,21.0,15.1,78,30.19,10.0,NE,3.5,-,N/A,,Clear,50,2013-03-08 02:53:00
8:53 PM,18.0,14.0,84,30.21,10.0,ESE,4.6,-,N/A,,Clear,110,2013-03-08 03:53:00
9:53 PM,17.1,14.0,88,30.22,9.0,ENE,3.5,-,N/A,,Clear,70,2013-03-08 04:53:00
10:53 PM,16.0,12.0,84,30.22,10.0,NE,5.8,-,N/A,,Clear,50,2013-03-08 05:53:00
11:53 PM,15.1,10.9,84,30.22,10.0,East,6.9,-,N/A,,Clear,80,2013-03-08 06:53:00